Waarnemingen

Advertentie
Mijn weer
Nordseeboje II, Duitsland (10008): temperatuur & dauwpunt: 14.04.2018 22:00:00 - 20.04.2018 22:00:00 (CEST)Nordseeboje II, Duitsland (10008): water temperatuur: 14.04.2018 22:00:00 - 20.04.2018 22:00:00 (CEST)Nordseeboje II, Duitsland (10008): windsnelheid: 14.04.2018 22:00:00 - 20.04.2018 22:00:00 (CEST)Nordseeboje II, Duitsland (10008): windrichting: 14.04.2018 22:00:00 - 20.04.2018 22:00:00 (CEST)Nordseeboje II, Duitsland (10008): luchtdruk: 14.04.2018 22:00:00 - 20.04.2018 22:00:00 (CEST)Nordseeboje II, Duitsland (10008): zicht: 14.04.2018 22:00:00 - 20.04.2018 22:00:00 (CEST)
Datum & Tijd tt [°C] td [°C] tw [°C] ff [km/u] ff [kn] dd ppp [hPa] vv [km]
20.04.2018 22:00:00 - - - - - - - -
20.04.2018 21:00:00 8,0 7,2 6,6 18 10 WNW 1021,2 -
20.04.2018 20:00:00 8,3 7,0 6,3 14 8 W 1020,3 -
20.04.2018 19:00:00 8,5 7,0 6,4 14 8 NW 1020,6 -
20.04.2018 18:00:00 9,0 7,0 6,5 18 10 W 1020,6 -
20.04.2018 17:00:00 8,8 6,9 6,2 11 6 W 1020,4 -
20.04.2018 16:00:00 8,9 6,9 6,4 18 10 W 1020,4 -
20.04.2018 15:00:00 8,7 7,1 6,4 22 12 W 1020,4 -
20.04.2018 14:00:00 8,4 7,1 6,3 18 10 W 1020,3 -
20.04.2018 13:00:00 8,4 7,1 6,2 22 12 W 1020,2 -
20.04.2018 12:00:00 8,5 6,9 6,2 22 12 W 1020,0 -
20.04.2018 11:00:00 9,2 7,1 6,4 14 8 OZO 1019,6 -
20.04.2018 10:00:00 8,6 6,9 6,2 22 12 WZW 1019,7 -
20.04.2018 09:00:00 8,5 6,6 6,3 18 10 ZZW 1019,8 -
20.04.2018 08:00:00 9,1 6,8 6,3 14 8 Z 1020,0 -
20.04.2018 07:00:00 9,2 7,1 5,9 11 6 ZZW 1020,4 -
20.04.2018 06:00:00 9,6 7,1 6,1 25 14 Z 1020,6 -
20.04.2018 05:00:00 10,0 7,2 6,2 25 14 ZZO 1021,2 -
20.04.2018 04:00:00 9,8 7,1 6,5 25 14 ZZO 1021,9 -
20.04.2018 03:00:00 10,8 7,6 6,5 25 14 Z 1022,6 -
20.04.2018 02:00:00 10,4 7,2 6,4 25 14 ZZO 1023,4 -
20.04.2018 01:00:00 10,2 6,9 6,0 25 14 ZZO 1024,0 -
20.04.2018 00:00:00 10,2 6,9 6,4 22 12 ZZO 1024,4 -
19.04.2018 23:00:00 11,4 7,0 6,2 25 14 ZO 1024,8 -
19.04.2018 22:00:00 11,4 7,4 5,9 25 14 ZZO 1025,2 -
19.04.2018 21:00:00 10,7 7,4 6,2 22 12 ZO 1025,4 -
19.04.2018 20:00:00 10,7 7,9 6,3 25 14 ZO 1025,6 -
19.04.2018 19:00:00 10,1 7,7 6,1 25 14 ZO 1026,1 -
19.04.2018 18:00:00 10,3 8,1 5,9 22 12 ZZO 1026,5 -
19.04.2018 17:00:00 9,2 7,6 5,9 22 12 ZZO 1027,0 -
19.04.2018 16:00:00 8,9 7,0 5,6 22 12 ZZO 1027,3 -
19.04.2018 15:00:00 8,7 7,0 6,1 18 10 ZO 1027,7 -
19.04.2018 14:00:00 8,7 7,0 6,0 22 12 ZZO 1027,8 -
19.04.2018 13:00:00 8,6 7,0 6,0 22 12 ZZO 1028,0 -
19.04.2018 12:00:00 8,5 7,3 5,8 25 14 ZZO 1028,5 -
19.04.2018 11:00:00 8,5 7,1 6,0 25 14 NNW 1028,5 -
19.04.2018 10:00:00 8,7 7,2 6,0 25 14 ZZO 1028,6 -
19.04.2018 09:00:00 8,9 7,0 5,9 25 14 ZO 1028,6 -
19.04.2018 08:00:00 9,2 7,1 6,0 22 12 ZO 1028,8 -
19.04.2018 07:00:00 8,7 6,9 5,6 22 12 ZO 1028,8 -
19.04.2018 06:00:00 8,6 6,5 5,5 18 10 OZO 1029,2 -
19.04.2018 05:00:00 8,8 6,3 5,5 18 10 ZO 1029,5 -
19.04.2018 04:00:00 8,1 6,4 5,6 18 10 ZZO 1029,7 -
19.04.2018 03:00:00 8,6 6,8 5,7 22 12 ZZO 1029,6 -
19.04.2018 02:00:00 9,3 7,1 5,6 22 12 ZZO 1029,9 -
19.04.2018 01:00:00 8,2 6,8 5,5 18 10 ZO 1030,5 -
19.04.2018 00:00:00 7,9 6,8 5,6 18 10 ZO 1030,7 -
18.04.2018 23:00:00 8,1 6,7 5,8 18 10 ZZO 1031,0 -
18.04.2018 22:00:00 9,6 7,7 5,6 18 10 Z 1030,9 -
18.04.2018 21:00:00 8,4 6,9 5,9 22 12 Z 1030,8 -
18.04.2018 20:00:00 8,7 6,7 5,8 18 10 ZZO 1030,7 -
18.04.2018 19:00:00 9,1 6,7 5,9 14 8 ZZO 1030,7 -
18.04.2018 18:00:00 9,1 6,5 5,5 11 6 ZZO 1030,6 -
18.04.2018 17:00:00 8,9 6,6 5,3 11 6 ZZW 1030,7 -
18.04.2018 16:00:00 8,6 6,5 5,5 22 12 ZZW 1030,7 -
18.04.2018 15:00:00 8,6 6,3 5,5 18 10 Z 1030,8 -
18.04.2018 14:00:00 8,2 6,1 5,5 18 10 ZZW 1030,5 -
18.04.2018 13:00:00 8,2 6,0 5,6 18 10 ZZW 1030,3 -
18.04.2018 12:00:00 8,1 6,0 5,5 14 8 ZW 1030,4 -
18.04.2018 11:00:00 7,3 5,8 5,5 25 14 ZW 1029,5 -
18.04.2018 10:00:00 7,3 5,9 5,6 25 14 ZW 1028,7 -
18.04.2018 09:00:00 8,0 6,1 5,4 22 12 ZW 1028,5 -
18.04.2018 08:00:00 8,5 6,7 5,5 22 12 WZW 1027,9 -
18.04.2018 07:00:00 7,8 5,9 5,5 25 14 ZW 1027,3 -
18.04.2018 06:00:00 7,8 5,8 5,6 29 16 ZW 1026,5 -
18.04.2018 05:00:00 8,0 5,5 5,2 25 14 ZZW 1026,1 -
18.04.2018 04:00:00 8,0 5,6 5,5 25 14 ZZW 1025,7 -
18.04.2018 03:00:00 8,4 5,4 5,4 29 16 ZZW 1025,6 -
18.04.2018 02:00:00 9,1 5,7 5,4 36 19 ZZW 1025,3 -
18.04.2018 01:00:00 8,7 6,1 5,5 36 19 ZZW 1025,0 -
18.04.2018 00:00:00 8,3 5,9 5,4 29 16 Z 1024,8 -
17.04.2018 23:00:00 8,3 5,9 5,4 29 16 Z 1024,6 -
17.04.2018 22:00:00 8,1 5,6 5,7 25 14 Z 1024,5 -
17.04.2018 21:00:00 8,6 5,8 5,7 25 14 Z 1024,1 -
17.04.2018 20:00:00 8,4 5,5 5,5 29 16 Z 1023,6 -
17.04.2018 19:00:00 8,4 5,8 5,8 25 14 Z 1023,5 -
17.04.2018 18:00:00 8,4 6,2 5,5 25 14 Z 1023,4 -
17.04.2018 17:00:00 7,8 5,8 5,6 25 14 Z 1023,2 -
17.04.2018 16:00:00 7,6 5,7 5,6 22 12 Z 1023,3 -
17.04.2018 15:00:00 7,3 5,3 5,5 25 14 Z 1023,3 -
17.04.2018 14:00:00 7,9 5,5 5,5 25 14 Z 1023,0 -
17.04.2018 13:00:00 7,2 5,2 5,4 22 12 Z 1022,9 -
17.04.2018 12:00:00 7,1 5,2 5,2 22 12 Z 1023,1 -
17.04.2018 11:00:00 7,2 5,5 5,4 25 14 ZZW 1022,9 -
17.04.2018 10:00:00 6,7 5,5 5,8 22 12 ZZW 1022,3 -
17.04.2018 09:00:00 6,8 5,7 5,6 22 12 ZZW 1021,9 -
17.04.2018 08:00:00 6,8 5,7 4,9 22 12 ZZW 1021,3 -
17.04.2018 07:00:00 6,6 5,8 5,0 22 12 ZZW 1020,7 -
17.04.2018 06:00:00 6,5 5,8 5,6 22 12 ZZW 1020,3 -
17.04.2018 05:00:00 - - 5,6 18 10 ZZW 1019,8 -
17.04.2018 04:00:00 6,5 6,5 5,7 18 10 ZZW 1019,5 -
17.04.2018 03:00:00 6,4 6,2 5,4 22 12 ZZW 1019,4 -
17.04.2018 02:00:00 6,2 6,0 5,3 18 10 ZZW 1019,0 -
17.04.2018 01:00:00 6,2 6,0 5,7 18 10 ZZW 1019,1 -
17.04.2018 00:00:00 6,4 6,2 5,5 18 10 ZW 1018,5 -
16.04.2018 23:00:00 6,4 6,2 5,5 18 10 ZW 1018,0 -
16.04.2018 22:00:00 6,4 6,2 5,7 22 12 ZW 1017,9 0,6
16.04.2018 21:00:00 6,4 6,2 5,5 18 10 ZW 1017,2 -
16.04.2018 20:00:00 6,7 6,5 4,9 18 10 ZW 1016,3 -
16.04.2018 19:00:00 6,9 6,7 5,0 18 10 ZW 1015,7 -
16.04.2018 18:00:00 6,9 6,7 5,0 22 12 ZW 1015,2 -
16.04.2018 17:00:00 7,0 6,9 4,8 22 12 ZW 1015,0 -
16.04.2018 16:00:00 6,9 6,8 4,9 25 14 ZW 1014,6 -
16.04.2018 15:00:00 6,9 6,9 5,0 22 12 ZW 1014,2 -
16.04.2018 14:00:00 6,7 6,7 5,0 18 10 ZW 1013,6 -
16.04.2018 13:00:00 6,5 6,5 5,1 14 8 ZW 1013,1 -
16.04.2018 12:00:00 5,8 5,8 4,9 14 8 ZZW 1012,9 -
16.04.2018 11:00:00 6,5 6,5 5,1 14 8 Z 1012,4 -
16.04.2018 10:00:00 6,4 6,4 5,0 14 8 Z 1011,7 -
16.04.2018 09:00:00 6,1 6,1 5,0 14 8 Z 1011,3 -
16.04.2018 08:00:00 6,4 6,3 4,9 18 10 Z 1010,9 -
16.04.2018 07:00:00 6,1 6,0 4,9 14 8 ZZO 1010,3 -
16.04.2018 06:00:00 6,2 6,2 4,9 14 8 ZZO 1010,0 -
16.04.2018 05:00:00 6,0 5,9 5,0 18 10 ZO 1010,1 -
16.04.2018 04:00:00 6,1 6,1 5,0 18 10 ZO 1010,1 -
16.04.2018 03:00:00 5,6 5,5 5,1 14 8 OZO 1010,3 -
16.04.2018 02:00:00 5,6 5,5 4,6 18 10 OZO 1010,4 -
16.04.2018 01:00:00 5,8 5,7 5,0 18 10 O 1010,6 -
16.04.2018 00:00:00 5,9 5,8 4,9 18 10 OZO 1011,1 -
15.04.2018 23:00:00 - - 5,1 18 10 O 1011,4 -
15.04.2018 22:00:00 5,7 5,5 4,8 18 10 O 1011,4 -
15.04.2018 21:00:00 5,7 5,6 5,1 14 8 O 1011,9 -
15.04.2018 20:00:00 5,5 5,4 4,9 14 8 O 1011,7 -
15.04.2018 19:00:00 5,4 5,3 5,1 11 6 O 1011,9 -
15.04.2018 18:00:00 5,3 5,2 4,8 14 8 O 1012,2 -
15.04.2018 17:00:00 5,2 5,1 4,7 14 8 O 1012,7 -
15.04.2018 16:00:00 5,1 4,9 4,8 11 6 O 1012,8 -
15.04.2018 15:00:00 4,7 4,7 4,8 14 8 O 1013,1 -
15.04.2018 14:00:00 4,5 4,4 4,6 11 6 OZO 1013,7 -
15.04.2018 13:00:00 - - - - - - - -
15.04.2018 12:00:00 4,4 4,3 4,7 7 4 ZZO 1014,6 -
15.04.2018 11:00:00 4,9 4,8 4,7 4 2 N 1014,9 -
15.04.2018 10:00:00 4,7 4,6 4,6 7 4 ZW 1015,1 -
15.04.2018 09:00:00 4,8 4,7 4,7 11 6 WZW 1015,2 -
15.04.2018 08:00:00 4,9 4,8 4,6 11 6 WZW 1015,4 -
15.04.2018 07:00:00 4,8 4,6 4,7 11 6 WZW 1015,5 -
15.04.2018 06:00:00 4,7 4,5 4,6 11 6 W 1015,5 -
15.04.2018 05:00:00 4,7 4,6 4,7 11 6 WZW 1015,9 -
15.04.2018 04:00:00 5,2 5,0 4,6 7 4 WZW 1016,3 -
15.04.2018 03:00:00 5,2 5,0 4,5 7 4 W 1016,6 -
15.04.2018 02:00:00 5,2 5,0 4,6 14 8 WZW 1017,0 -
15.04.2018 01:00:00 5,3 5,0 4,7 14 8 W 1016,9 -
15.04.2018 00:00:00 5,5 5,6 4,9 22 12 W 1016,5 -
14.04.2018 23:00:00 5,5 5,5 4,6 22 12 WZW 1016,9 -
14.04.2018 22:00:00 5,4 5,1 4,7 22 12 W 1016,8 -

tt = temperatuur
td = dauwpunt
tw = water temperatuur
ff = windsnelheid
dd = windrichting
ppp = luchtdruk
vv = zicht

Weerstations in de omgeving